Location: Barcelona
(41.3829°N, 2.1774°E)
Time: 20:41:55
(UTC+00:00)

ISS - Pass Details

Date: 06 July 2025
Orbit: 413 x 417 km, 51.6° (Epoch: 13 July)

Event Time Altitude Azimuth Distance (km) Brightness Sun altitude
Rises 22:22:03 0° 253° (WSW) 2,343 0.1 -22.4°
Reaches altitude 10° 22:24:13 10° 261° (W) 1,484 -0.8 -22.6°
Maximum altitude 22:27:22 39° 332° (NNW) 642 -2.4 -22.8°
Drops below altitude 10° 22:30:32 10° 43° (NE) 1,493 -0.7 -23.0°
Sets 22:32:43 0° 51° (NE) 2,359 0.3 -23.2°
